GFSWCAN_sfc_temp_120.txt.gz
Temp
57 56 56 56 56 56 55 55 55 55 54 54 54 53 53 53 53 45 40 40 40 35 36 39 41 38 36 35 35 36 36 36 32 32 30 28 27 28 24 26 26 26 23 23 26 22 22 38 35 34 40 37 39 40
56 56 56 55 55 56 55 55 54 54 54 54 54 53 53 53 53 48 40 42 41 38 39 39 39 40 40 41 39 35 37 35 36 31 29 29 30 24 25 27 25 28 32 28 29 30 38 36 38 40 40 39 39 39
56 56 56 55 55 55 55 54 54 54 54 54 54 54 53 53 53 48 40 40 40 37 38 38 37 39 42 40 41 38 36 38 36 37 33 31 31 31 27 26 26 31 33 32 33 35 36 41 41 40 41 41 43 43
55 55 55 55 55 55 54 54 54 54 54 54 55 54 53 53 52 48 41 40 40 37 34 38 42 38 40 40 41 41 40 39 38 36 34 32 32 34 30 31 29 34 33 32 32 38 40 40 38 41 43 43 41 41
55 54 55 55 54 54 53 53 53 53 54 54 55 54 53 52 50 43 40 39 40 38 34 35 39 39 40 40 40 40 40 38 36 35 32 33 33 32 30 30 28 33 35 32 32 37 36 38 40 40 38 39 40 39
54 54 54 54 54 53 53 53 53 52 52 52 53 53 52 52 48 41 37 40 40 39 33 29 36 35 38 38 37 37 37 35 34 35 34 34 35 34 28 28 37 36 38 39 37 38 38 40 40 37 38 39 39 38
54 54 54 53 53 53 53 52 52 52 52 52 53 53 52 50 42 39 38 40 44 40 34 30 29 34 34 33 33 33 34 32 33 32 31 32 33 35 30 28 38 38 39 39 37 35 35 35 36 39 37 38 39 38
53 53 53 53 53 52 52 52 51 52 52 52 52 52 51 50 46 39 39 45 42 36 34 23 26 30 33 31 30 31 31 31 31 30 31 31 32 31 28 36 38 39 39 38 38 37 38 39 37 37 37 36 35 36
52 52 52 52 52 52 51 51 51 52 52 52 51 51 47 43 39 39 46 43 37 36 29 31 26 22 33 30 30 31 31 27 30 30 29 31 29 27 33 35 35 36 34 35 35 35 35 34 34 34 33 34 32 33
52 52 51 51 51 51 51 51 52 52 52 50 46 43 37 37 45 43 36 33 31 31 30 31 32 28 29 29 29 28 29 26 18 28 30 28 27 34 37 37 37 36 35 33 32 33 32 32 33 34 33 33 31 32
50 50 50 50 50 50 51 51 51 51 50 43 39 34 36 44 36 33 29 30 32 31 32 32 31 26 31 26 27 30 25 29 26 24 29 25 26 32 36 35 36 34 31 33 32 33 33 32 31 32 34 34 32 32
49 49 49 49 49 50 50 51 50 46 43 43 40 38 35 34 33 28 25 30 30 30 29 27 29 29 29 30 30 29 24 29 23 28 28 24 27 33 34 33 33 34 33 33 33 34 35 35 34 32 32 33 34 33
47 47 48 49 49 50 50 50 50 48 45 41 36 34 30 30 27 23 17 26 27 30 25 27 26 29 29 30 27 26 25 25 25 24 22 24 30 32 33 34 33 33 32 32 33 33 34 33 34 31 32 33 31 31
46 47 47 48 49 49 50 50 48 47 41 34 30 26 25 23 23 23 24 24 27 25 24 26 24 26 28 26 27 24 27 26 23 21 19 23 27 32 32 33 32 33 33 31 32 33 32 31 32 31 32 32 31 33
47 48 48 48 48 48 49 49 47 42 37 32 31 24 21 26 23 28 25 27 26 28 27 26 26 27 24 24 29 27 24 23 24 20 23 23 30 31 32 32 33 33 33 32 33 33 33 33 33 34 32 31 31 32
47 47 44 48 48 48 48 46 42 39 33 31 30 25 27 24 23 24 25 27 28 29 28 28 22 18 21 26 25 25 24 21 22 24 25 26 30 31 32 33 33 33 32 33 32 33 33 33 33 35 35 33 33 32
46 39 47 48 48 47 46 39 35 32 30 27 28 30 28 29 28 26 28 29 31 30 27 25 19 21 22 23 21 22 21 25 26 25 26 29 29 29 29 31 33 33 32 34 32 32 33 35 32 27 28 35 34 33
38 42 47 48 44 43 38 35 30 26 19 28 27 25 30 30 28 29 29 28 30 30 29 27 21 14 17 19 18 23 24 24 25 28 29 30 33 38 37 35 36 34 33 33 32 33 32 29 27 29 33 34 30 30
40 42 47 47 42 34 31 32 30 21 22 26 26 26 28 29 30 32 31 31 29 29 25 22 15 17 23 23 21 21 23 24 30 33 36 37 33 35 35 33 32 30 30 32 31 33 35 35 34 35 35 34 32 33
46 47 46 45 42 29 26 28 33 27 22 24 25 25 24 25 27 27 28 29 29 27 26 24 22 29 27 28 28 30 33 34 32 31 34 37 39 32 30 31 34 35 35 34 34 37 35 34 34 35 33 31 30 31
42 41 44 39 34 30 25 26 27 27 26 24 27 26 21 25 21 21 23 25 26 27 19 25 31 36 38 39 40 39 38 37 35 35 35 34 38 36 35 36 35 35 34 34 33 34 36 34 35 36 35 34 34 33
38 43 36 37 31 29 26 30 25 24 20 17 20 21 19 20 21 23 16 13 15 26 29 33 35 35 35 35 37 37 38 37 36 36 39 38 33 33 33 34 33 32 33 34 34 33 34 35 36 35 34 34 35 34
41 38 33 30 22 26 20 30 27 26 20 15 23 20 18 20 17 15 12 16 21 26 34 34 35 36 35 37 36 35 35 34 34 35 36 36 36 35 33 33 34 32 31 33 35 33 34 37 37 36 35 34 33 32
41 32 28 26 16 18 22 24 27 23 22 19 16 13 11 14 10 10 10 15 30 31 32 32 33 32 33 32 31 33 35 36 33 34 34 32 31 33 34 34 35 35 34 34 34 34 34 34 37 34 33 31 30 30
27 27 27 24 16 19 21 21 15 21 17 19 15 7 10 7 7 6 9 18 26 31 32 33 32 32 30 32 34 34 36 34 32 31 34 33 32 32 32 33 34 36 36 31 32 34 34 34 34 32 31 30 29 30
23 26 24 23 18 17 16 14 18 13 8 9 12 8 4 4 2 11 15 28 30 31 31 31 32 32 31 32 31 32 35 37 34 30 33 35 33 31 30 30 31 34 35 33 35 34 34 35 34 31 31 31 34 33
22 23 26 25 22 19 16 16 15 10 6 9 9 8 7 9 10 16 28 26 31 30 34 35 34 32 32 34 36 37 37 36 34 35 38 37 36 35 34 31 31 36 39 32 34 35 33 33 33 32 32 32 31 30
25 22 19 20 18 16 12 9 9 10 13 15 13 6 8 11 18 32 30 29 29 33 32 34 35 35 35 35 37 37 36 37 36 33 22 30 33 35 35 35 36 37 36 36 36 36 34 33 32 31 29 28 29 30
22 20 21 17 17 17 14 15 14 17 23 17 14 20 21 32 35 34 36 37 36 32 31 32 34 36 34 34 33 33 32 31 29 26 25 26 29 32 34 33 32 33 34 33 36 37 34 29 30 30 29 28 29 29
17 21 15 11 13 13 16 19 16 21 22 28 28 24 30 32 35 37 35 34 33 32 33 33 34 32 31 30 30 32 34 33 29 28 27 27 29 33 34 28 31 32 31 26 29 29 34 28 25 21 22 21 23 24
20 18 15 13 14 16 25 22 18 28 18 16 24 23 26 30 34 36 36 36 35 34 32 31 31 32 31 30 30 29 29 34 34 34 34 33 33 33 33 33 33 32 27 24 25 27 26 20 19 21 21 21 20 25
16 15 14 8 10 13 10 13 9 11 11 12 24 19 26 21 22 30 36 36 32 30 32 33 30 31 33 34 34 34 37 35 35 35 32 34 34 34 34 33 33 31 24 24 26 26 21 20 23 20 20 19 18 19
0 -1 -3 4 7 8 6 16 8 5 5 12 24 27 26 24 20 24 24 29 34 32 31 33 32 31 30 31 34 35 37 36 37 38 38 38 38 36 32 31 30 25 23 25 26 25 21 20 19 19 19 19 20 17

GFSWCAN_sfc_temp_123.txt.gz
Temp
57 57 57 56 56 56 56 55 55 55 54 54 54 53 53 53 52 45 40 40 40 35 35 39 39 36 35 34 34 35 36 35 32 31 31 29 27 27 25 26 26 25 24 23 26 23 22 37 36 34 40 38 40 39
57 57 57 56 56 56 56 55 54 54 54 54 54 53 53 53 52 48 41 42 41 38 39 38 38 38 38 39 37 34 36 34 36 31 29 29 29 24 27 28 26 28 32 29 30 31 38 37 39 39 40 40 40 39
56 56 56 56 55 55 56 55 54 54 54 54 54 54 53 53 52 47 39 39 39 37 38 37 36 38 42 40 41 38 35 37 35 36 32 30 31 31 26 27 26 31 33 32 33 33 38 41 40 40 41 40 41 40
55 56 56 55 55 55 55 55 54 54 54 54 54 54 53 52 51 47 39 38 38 36 34 35 41 36 40 41 41 41 40 39 38 37 34 32 32 34 31 32 30 35 33 31 32 36 38 37 38 38 39 39 38 39
55 55 55 55 55 55 54 54 54 53 53 54 54 54 53 52 49 42 38 38 39 38 34 34 37 37 38 39 39 38 40 38 35 34 31 32 31 31 29 29 27 33 34 33 32 37 38 39 40 40 38 39 39 36
55 55 55 55 54 54 54 53 53 53 53 53 54 54 52 51 48 41 37 39 39 39 34 29 34 33 36 36 36 36 36 35 34 34 32 32 35 33 28 29 36 34 36 38 36 36 37 39 39 37 36 38 38 38
54 54 54 54 54 54 53 53 52 52 52 52 53 53 52 50 43 39 38 40 44 39 33 29 28 33 33 33 32 33 33 32 33 31 31 30 32 33 29 27 36 37 38 38 37 35 35 34 36 37 36 38 38 37
54 54 54 54 53 53 53 52 52 52 52 52 52 51 51 49 46 39 39 45 41 36 34 22 25 29 33 30 29 30 30 31 31 30 30 30 30 29 27 33 35 35 35 36 35 35 36 36 35 37 36 35 34 35
53 53 54 53 53 53 52 52 52 51 51 51 51 51 47 42 38 37 46 42 37 36 28 31 26 22 32 29 30 31 30 26 29 28 28 30 28 27 31 33 32 33 33 34 34 34 34 33 33 33 32 33 32 34
52 53 53 53 53 52 52 51 51 51 51 50 46 41 34 38 45 43 37 34 32 32 30 31 32 28 30 29 28 28 29 27 20 28 30 28 28 33 36 36 35 35 33 32 31 31 31 30 32 32 32 32 31 31
52 52 52 52 51 51 51 51 51 51 50 44 39 37 35 43 36 33 29 29 30 30 32 32 32 27 30 27 28 30 25 27 26 25 29 28 26 31 34 34 35 34 32 31 31 32 32 31 30 31 32 33 32 32
51 51 51 51 50 50 50 50 50 46 44 43 40 40 37 36 33 26 22 29 29 25 29 29 30 29 28 29 29 29 25 28 23 27 27 24 27 32 33 34 33 34 31 33 31 33 33 33 33 32 31 32 33 33
51 50 50 50 50 50 50 50 50 47 46 42 37 33 32 28 26 23 16 26 27 31 25 28 25 28 28 29 27 27 26 25 25 26 24 23 29 32 32 33 33 32 31 32 33 33 34 32 33 31 32 34 32 31
49 48 49 49 49 49 50 49 48 46 42 35 31 27 26 24 21 23 22 23 26 25 23 28 23 25 27 25 26 20 27 27 22 21 19 24 29 31 32 31 30 31 32 31 30 32 32 31 31 31 31 32 31 32
46 46 46 46 47 48 48 47 46 43 37 32 32 25 25 27 25 28 28 28 28 27 27 26 24 27 25 25 29 27 23 22 24 19 23 24 29 31 31 32 31 31 31 30 31 30 30 30 30 31 31 30 30 32
45 44 43 46 47 47 47 45 42 39 33 31 29 26 28 27 25 26 23 23 28 29 26 27 22 20 22 27 25 24 23 20 22 22 23 25 29 30 30 31 31 31 30 31 32 32 32 30 31 33 34 33 32 32
44 39 45 46 47 45 45 38 36 32 30 26 24 31 29 28 27 27 28 29 31 32 28 28 22 23 23 23 20 21 22 23 24 23 23 28 29 30 29 29 29 29 29 28 28 28 29 32 31 28 28 33 33 33
37 42 47 47 44 42 37 35 30 27 26 27 26 27 30 31 29 29 29 28 29 29 26 21 20 18 18 18 18 22 21 21 23 27 29 29 28 28 30 30 33 31 30 29 27 28 28 27 28 29 31 32 33 33
40 44 47 46 42 35 31 30 29 23 22 26 27 27 28 30 31 31 30 29 28 28 25 25 17 20 21 22 22 20 21 22 27 33 33 32 31 31 32 30 29 28 28 29 30 32 34 34 33 34 34 34 32 33
46 46 46 45 42 30 26 29 31 25 21 25 26 25 25 26 26 27 27 27 28 27 25 25 23 26 25 29 28 32 34 34 30 30 32 35 35 29 29 30 32 33 32 32 32 36 34 33 33 34 34 33 31 32
42 42 43 39 33 30 26 27 27 24 24 23 24 26 23 25 25 20 20 26 19 17 20 26 29 33 34 37 38 37 36 34 33 33 33 33 37 35 34 35 31 32 32 32 32 33 35 32 34 35 34 34 34 35
38 43 36 36 30 29 23 25 23 24 22 17 23 23 21 20 21 23 18 17 23 23 26 30 32 33 33 34 35 35 35 34 33 34 37 37 33 33 33 34 32 31 31 31 32 32 33 34 35 34 33 34 36 34
40 36 32 24 24 23 18 29 26 26 21 16 22 21 21 21 17 19 10 15 20 25 30 33 35 35 33 35 34 33 33 33 33 34 35 35 35 35 34 33 33 31 31 32 33 32 32 36 35 35 34 34 33 33
40 28 25 25 17 22 25 23 25 20 22 20 18 15 14 13 15 12 10 14 23 26 26 29 30 30 31 30 29 32 33 34 32 33 34 32 30 32 34 33 34 34 33 33 33 32 32 33 36 34 33 32 31 31
27 26 26 19 12 18 19 18 17 20 17 19 15 11 8 4 5 8 8 15 17 26 29 28 27 30 29 31 33 33 36 34 32 31 34 34 32 32 31 32 33 34 34 31 30 30 31 32 32 32 32 29 29 30
22 26 22 16 11 16 16 11 14 14 11 13 13 5 0 3 0 9 12 17 26 27 28 29 31 30 30 31 31 32 34 37 30 30 33 35 33 31 29 29 30 32 35 33 31 30 30 31 31 31 31 30 33 32
22 23 25 24 21 18 15 14 15 11 7 10 10 9 8 3 7 15 22 20 25 26 31 33 32 31 32 34 36 37 38 37 34 35 38 37 37 36 33 30 30 34 37 36 30 30 30 31 32 32 31 31 27 29
26 24 20 19 15 13 14 12 12 13 17 17 13 5 8 10 15 25 22 22 27 30 27 31 31 33 33 34 35 35 35 35 35 34 34 33 32 33 34 35 35 37 36 36 34 33 33 32 31 31 30 29 29 30
22 22 23 17 15 13 17 16 16 18 25 19 17 14 14 20 25 21 30 32 24 19 24 30 33 33 32 32 33 33 31 30 26 24 23 25 27 30 34 34 32 32 32 32 36 36 34 31 31 31 30 29 29 30
19 19 15 14 16 17 22 23 24 24 23 24 24 21 25 28 34 36 26 32 31 31 32 33 32 30 29 29 29 30 32 31 30 28 25 26 29 33 34 31 31 31 31 29 29 29 33 30 27 21 22 21 18 22
19 19 19 17 18 21 24 18 18 26 15 12 13 20 27 30 34 36 35 34 34 33 31 30 30 30 29 28 27 26 27 31 29 31 32 34 34 33 32 33 33 33 32 28 27 26 26 22 20 20 20 21 20 24
17 19 20 16 15 13 8 14 10 12 9 6 23 9 10 11 14 31 28 33 31 29 31 31 28 28 31 32 32 32 35 33 32 33 33 34 34 34 32 32 33 33 32 28 26 25 23 18 20 20 22 18 17 17
8 4 3 8 8 9 5 10 3 4 1 1 11 18 18 17 17 22 22 26 28 30 31 32 32 32 31 29 31 30 33 31 31 34 34 32 33 33 34 34 32 31 28 26 25 24 17 17 20 20 18 17 18 17

GFSWCAN_sfc_temp_126.txt.gz
Temp
57 57 57 57 57 56 56 56 55 55 55 54 54 53 53 53 52 52 47 47 49 46 46 46 47 45 44 45 46 43 44 43 43 41 41 41 39 40 37 39 37 36 34 33 35 31 33 47 45 44 46 50 49 49
57 57 57 57 57 56 56 55 55 54 54 54 54 53 53 53 52 50 49 47 48 48 46 45 46 46 46 48 48 42 44 44 48 45 42 41 38 38 40 41 38 37 43 40 41 43 47 48 49 48 49 47 47 45
56 56 57 56 57 56 56 56 55 54 54 54 54 54 53 53 52 50 48 46 47 45 45 45 44 46 48 46 47 46 44 44 43 45 45 44 40 42 39 39 40 40 42 42 39 44 45 50 48 49 48 46 46 46
55 55 56 56 56 56 55 55 55 54 54 54 55 54 53 52 51 49 47 45 46 46 44 43 47 44 46 47 47 47 47 45 46 45 44 43 42 43 43 41 41 44 41 42 42 45 46 46 48 46 45 46 45 45
54 54 55 56 56 55 55 55 54 54 54 54 54 54 53 51 49 46 45 45 46 46 42 42 43 43 44 45 45 45 46 45 45 42 41 41 42 40 39 38 38 42 43 43 44 47 47 47 48 46 44 44 45 43
54 54 55 55 55 55 54 54 54 53 53 53 54 54 53 51 49 47 43 45 45 45 43 39 41 41 42 43 42 42 43 43 44 44 42 41 40 41 37 37 44 44 45 47 46 46 46 47 46 46 43 44 44 44
54 54 54 54 54 55 54 53 53 53 53 53 53 53 52 51 47 44 43 45 46 45 41 38 36 40 41 41 40 41 41 41 42 41 39 40 40 40 37 35 43 45 46 45 46 44 43 43 44 44 43 44 43 43
53 53 54 54 54 54 53 53 53 52 52 52 52 52 51 49 47 44 44 46 45 42 40 34 34 36 40 37 37 38 39 40 39 39 38 38 38 37 32 40 43 43 44 44 43 43 43 42 44 43 43 42 42 44
53 53 54 54 54 54 53 52 52 52 52 52 51 50 48 46 42 42 46 44 43 42 36 34 33 33 38 35 36 37 37 34 36 35 35 36 35 31 39 41 41 43 43 43 42 44 44 42 41 42 41 43 41 43
52 53 53 53 53 53 53 52 52 51 51 51 47 43 38 41 46 45 41 39 38 38 37 34 36 32 36 35 34 35 35 33 30 34 35 31 32 39 42 43 43 42 42 42 40 38 39 38 40 41 40 42 41 41
52 52 52 52 52 52 52 52 51 51 50 44 40 38 39 44 41 38 34 33 33 32 35 35 35 33 36 34 34 35 32 33 28 31 30 31 30 36 39 40 41 42 42 41 41 40 40 39 38 38 39 41 41 40
51 51 52 52 52 52 52 51 51 48 45 45 41 41 39 38 35 32 29 31 30 30 32 32 33 35 34 36 35 33 31 30 26 33 29 26 34 37 39 38 39 41 41 41 40 40 40 40 40 39 38 39 40 41
51 51 51 52 52 52 51 50 50 47 47 42 38 35 35 32 27 25 22 27 29 32 30 31 30 34 33 35 32 32 28 27 31 27 26 31 35 38 39 40 40 40 39 39 40 41 40 40 40 39 38 39 40 40
51 51 51 51 51 51 50 50 48 47 41 33 32 27 30 27 29 29 29 30 33 32 31 33 30 32 33 31 31 25 30 29 24 22 25 33 36 38 39 40 39 41 40 36 35 37 36 34 35 36 36 38 39 38
51 51 50 50 50 50 50 48 47 43 37 32 32 27 28 32 29 31 31 32 31 34 33 31 30 33 29 28 31 29 24 23 26 27 32 34 37 39 39 39 39 39 39 39 39 36 33 33 33 35 37 37 38 38
49 48 45 49 49 49 47 45 42 39 32 32 30 27 29 30 28 30 30 31 31 33 32 33 28 27 27 29 27 25 25 23 29 31 35 36 36 37 37 37 37 38 38 38 38 38 38 37 36 37 38 37 37 37
44 39 46 48 46 46 44 38 36 32 32 30 28 32 31 31 31 31 33 33 34 34 31 30 26 25 27 25 24 30 27 31 33 34 34 35 36 37 37 36 35 35 35 36 36 36 35 37 36 33 32 37 38 37
39 43 45 44 42 40 35 34 32 31 28 29 28 29 32 33 32 31 32 33 33 32 32 29 28 23 23 21 24 30 31 32 32 34 36 37 37 37 35 36 36 36 35 34 32 33 33 31 31 34 35 37 37 37
40 41 43 43 41 34 31 31 31 25 25 29 29 30 31 32 32 33 33 33 32 33 30 28 24 24 26 29 30 31 31 30 34 38 38 37 36 36 36 34 33 33 33 34 35 37 39 38 38 37 37 38 36 37
44 44 44 44 41 32 29 29 32 27 25 27 28 28 29 29 29 30 31 30 30 30 27 24 26 30 31 35 33 35 35 36 35 34 36 39 41 36 34 35 37 38 37 37 37 38 37 37 38 38 37 37 36 36
41 41 42 39 33 31 29 28 27 26 26 25 26 27 25 27 26 26 26 29 27 24 23 29 31 35 37 39 40 37 37 36 36 36 36 35 39 39 38 38 37 37 35 35 36 36 37 36 38 39 38 37 38 38
39 42 35 35 29 28 27 28 27 27 24 23 25 26 22 22 24 25 25 24 24 26 29 32 33 35 35 35 36 36 37 37 37 36 37 38 35 35 35 36 35 34 34 34 35 35 36 38 38 38 37 37 38 37
40 37 31 27 25 24 23 29 24 26 22 21 23 22 22 21 21 23 20 22 25 28 32 33 35 35 35 36 34 34 35 34 34 35 36 36 37 36 35 36 37 33 33 35 37 36 35 38 38 37 37 37 36 36
39 28 24 23 19 18 26 24 25 23 22 21 20 17 17 18 19 18 17 20 26 29 29 31 33 32 34 31 31 34 35 36 34 34 36 35 33 35 37 37 38 38 36 37 36 36 36 36 37 36 35 34 34 34
24 22 22 17 17 18 16 20 19 20 18 20 16 14 14 13 14 14 14 19 22 29 32 31 30 31 31 33 35 35 37 36 34 33 36 37 36 36 34 35 37 38 38 34 33 33 33 34 34 33 33 33 32 32
20 23 23 18 15 16 16 14 14 15 19 16 15 10 9 11 9 13 17 21 28 31 32 31 31 32 31 32 33 34 36 39 34 32 35 37 36 34 31 31 31 34 38 36 34 32 32 33 33 32 32 33 35 33
22 21 20 25 21 18 15 16 17 13 11 11 10 9 10 7 10 18 24 25 28 30 33 35 34 33 34 37 38 38 38 37 34 36 39 38 38 37 35 32 31 35 39 37 36 34 33 32 32 32 32 33 33 33
27 24 16 16 15 14 14 11 11 10 13 16 14 8 9 13 19 24 25 28 30 31 31 31 32 34 35 36 37 37 36 36 35 33 33 34 35 35 35 35 36 37 36 36 35 35 34 33 32 32 31 31 32 33
19 23 24 15 13 13 15 16 15 18 23 18 17 16 17 22 24 27 33 28 22 21 26 33 36 34 31 30 31 32 31 31 28 23 23 25 28 31 34 34 33 33 33 32 35 35 34 33 32 32 32 32 33 33
19 24 21 18 18 16 19 21 19 21 24 25 25 23 24 27 30 28 27 31 26 31 35 35 34 32 30 29 29 31 32 31 30 28 26 27 29 34 34 34 33 34 33 33 31 31 34 33 33 31 29 29 26 25
19 18 18 18 18 21 23 22 19 26 17 16 14 20 27 27 33 37 35 36 35 33 31 30 30 30 29 29 28 27 27 30 30 30 31 32 32 32 33 34 34 33 32 31 30 29 29 29 28 27 25 24 23 27
13 12 14 10 13 13 11 12 10 14 10 10 24 12 11 14 15 25 28 29 29 26 31 32 28 29 32 31 32 32 35 33 29 29 28 30 31 32 32 32 31 31 31 32 31 30 29 27 26 25 23 22 22 23
8 5 -0 4 7 7 6 10 4 6 2 2 10 14 17 19 18 24 22 24 29 31 31 31 32 32 32 30 31 32 34 32 31 34 35 35 36 34 33 30 28 28 28 30 30 30 28 26 24 22 22 22 21 19

GFSWCAN_sfc_temp_129.txt.gz
Temp
56 57 57 57 57 57 57 56 56 56 55 55 54 54 54 53 53 54 53 53 52 54 51 50 52 51 51 52 51 48 47 47 46 44 45 47 44 46 43 47 42 41 39 38 40 36 35 51 48 46 49 52 52 51
56 56 57 57 57 57 56 56 55 55 54 54 54 54 53 53 53 52 54 53 53 52 49 50 50 50 49 49 52 49 49 49 53 48 47 48 44 45 47 45 45 41 48 46 46 47 51 53 51 52 52 49 49 48
55 56 56 56 56 56 56 56 55 55 54 54 54 54 54 53 52 51 54 53 52 51 50 49 47 50 52 50 52 50 51 50 49 49 49 48 43 49 44 45 46 47 49 45 44 50 50 52 51 51 50 48 48 47
52 55 55 55 56 56 56 56 55 55 54 54 55 55 54 53 51 50 53 52 51 52 47 47 51 48 50 51 50 50 50 50 50 50 48 47 44 48 47 45 44 48 45 47 47 49 50 49 51 49 49 49 48 49
51 53 54 55 55 55 55 55 55 55 54 54 55 54 54 52 50 52 52 51 50 48 46 46 47 47 48 49 48 49 50 49 50 47 45 44 47 44 45 42 42 47 47 44 47 52 51 49 50 49 47 47 48 47
51 52 53 54 54 55 55 54 54 54 53 53 53 54 53 51 50 51 47 49 50 49 46 42 45 44 46 48 47 47 48 48 49 48 47 49 45 44 41 41 51 51 51 52 50 51 50 49 49 49 47 47 48 47
49 50 52 54 54 54 54 54 54 53 53 53 53 53 52 51 50 47 45 47 48 49 44 40 38 42 44 45 45 45 46 46 47 46 42 44 44 43 41 38 49 50 50 49 50 49 45 48 46 47 47 47 47 47
49 49 51 53 54 54 54 54 53 53 53 53 53 52 51 50 48 46 47 47 48 46 44 36 35 37 41 40 39 42 42 43 42 44 42 41 41 40 35 46 47 48 49 47 47 47 48 47 47 46 46 46 45 47
49 49 49 52 53 53 53 53 53 52 52 52 51 50 49 47 45 46 46 46 47 45 39 36 35 34 40 39 40 40 42 36 40 38 38 38 38 32 41 45 45 46 45 45 45 45 45 44 44 45 45 45 44 44
48 48 49 50 53 53 53 53 52 52 51 50 48 44 40 43 46 46 44 42 42 42 41 36 39 34 39 38 37 38 39 37 32 37 38 32 35 43 45 46 49 47 46 46 40 39 40 40 42 43 43 44 44 43
48 48 48 49 52 52 53 53 52 51 50 45 40 39 39 46 43 40 36 35 37 34 38 38 37 34 39 36 38 39 35 36 30 33 32 32 32 40 45 46 46 47 47 45 46 44 43 42 41 41 42 43 43 43
48 48 48 48 52 52 52 52 51 49 45 45 42 42 40 38 35 33 33 33 31 33 35 34 35 38 37 40 38 35 33 32 28 35 30 27 37 40 42 43 44 46 46 44 44 44 44 43 44 43 42 42 42 42
47 47 48 49 52 52 52 51 51 47 48 43 39 34 34 33 29 29 26 29 30 35 32 32 31 36 35 38 36 34 29 29 35 28 28 34 38 41 42 43 42 42 42 42 43 44 43 43 42 41 40 41 42 42
45 46 48 50 52 52 52 50 48 47 41 34 32 29 32 29 32 34 35 34 35 35 33 35 32 34 36 33 34 28 32 32 25 24 27 38 39 42 43 43 44 44 43 38 37 39 38 35 36 37 37 39 39 39
48 48 49 51 51 51 51 48 48 43 36 32 32 30 30 36 33 34 34 34 33 37 34 32 33 36 32 29 33 30 25 24 28 29 35 37 40 42 42 42 43 42 43 42 42 38 35 34 34 36 38 39 39 39
49 50 50 51 51 50 48 47 43 38 32 32 31 30 34 33 29 31 33 32 34 35 35 35 31 30 30 31 28 27 27 26 31 34 37 40 39 40 40 41 41 42 41 41 41 40 40 39 38 38 40 39 39 38
49 41 50 50 50 48 47 37 35 32 32 31 30 35 35 35 33 34 37 35 37 35 32 32 28 29 29 28 27 31 29 33 35 35 37 38 39 40 40 40 39 39 39 39 39 39 38 39 38 35 33 38 39 38
43 48 49 47 45 41 34 33 32 32 29 31 31 32 35 37 35 34 34 35 34 34 33 32 31 27 27 26 28 33 34 36 36 37 38 39 40 41 40 39 39 38 38 36 34 34 34 33 32 34 35 37 37 37
40 44 46 46 43 34 32 31 32 27 28 31 31 33 33 32 34 37 35 34 33 36 33 31 29 28 30 32 34 35 35 35 38 40 41 40 39 39 38 36 34 34 34 34 35 37 38 39 39 38 38 38 37 38
41 40 40 40 39 33 29 29 33 30 27 28 31 30 30 30 31 32 32 32 33 33 30 28 31 35 35 38 37 38 38 39 38 36 37 41 43 39 36 35 37 38 38 38 38 40 38 38 40 40 39 38 37 37
39 39 40 37 33 32 31 30 27 28 28 27 29 29 27 30 30 30 29 32 30 28 28 33 36 39 40 42 43 41 40 40 39 40 39 37 41 41 39 39 38 39 38 37 37 38 39 38 39 40 39 39 39 39
38 42 36 36 30 30 29 30 28 28 27 27 27 28 26 26 26 27 29 27 27 31 33 36 37 38 38 37 39 39 40 40 39 39 40 39 36 36 36 37 36 35 35 36 37 37 38 39 40 40 39 39 40 39
41 38 32 32 27 27 25 31 26 27 23 22 26 24 23 23 23 26 24 26 30 34 35 35 37 38 37 39 37 36 37 36 37 38 39 39 40 38 37 37 38 35 34 36 38 37 36 39 39 38 38 38 37 36
40 31 26 24 26 22 28 25 27 24 24 23 23 20 20 22 23 22 22 27 31 33 32 32 35 35 37 35 34 36 38 39 37 37 38 37 35 37 39 39 41 40 38 38 37 37 37 37 38 37 37 35 35 34
28 26 27 21 22 22 21 22 21 22 19 21 19 18 18 19 19 18 19 25 27 31 34 35 35 35 35 37 38 39 40 38 36 35 38 39 38 38 37 38 39 40 39 35 34 35 35 35 35 34 34 33 32 32
20 25 24 22 21 22 21 18 19 19 20 18 18 14 16 18 15 18 24 26 31 34 35 34 34 34 34 36 35 37 39 41 37 35 37 39 37 35 33 32 32 35 39 37 35 34 34 34 34 32 32 33 35 33
18 22 25 28 25 22 20 20 21 19 16 16 17 13 16 12 15 23 30 31 33 34 35 37 36 36 37 38 40 41 41 39 36 38 41 40 39 38 35 33 32 36 39 37 35 34 33 33 32 32 32 32 33 32
27 25 18 22 20 22 17 18 17 16 19 21 19 13 13 18 22 30 30 34 35 35 34 34 35 37 37 38 39 39 38 38 37 35 35 35 36 35 35 35 36 37 36 35 35 34 33 33 30 31 30 30 31 32
26 25 25 14 17 19 19 19 19 23 27 21 20 21 21 27 31 32 34 33 33 31 30 32 35 35 34 34 34 34 33 32 30 26 25 27 30 32 34 34 34 34 34 33 36 36 35 34 31 31 31 31 32 32
24 28 22 18 17 19 26 26 26 27 27 28 29 28 28 31 34 34 33 32 30 30 33 35 36 35 33 32 32 32 34 33 31 29 27 27 31 34 32 32 33 33 34 34 33 33 35 34 33 32 31 30 29 29
26 25 22 23 21 26 28 27 26 29 26 25 25 25 29 31 35 38 37 37 35 34 32 32 32 32 31 30 29 29 29 33 33 32 32 33 34 33 33 33 33 33 33 32 31 29 30 30 30 29 29 28 27 28
21 21 18 14 19 20 20 22 21 23 23 21 24 23 23 24 22 29 33 32 32 31 34 34 31 32 34 34 34 34 36 34 33 31 28 31 32 32 33 33 32 32 31 29 28 27 28 29 29 29 28 27 26 24
15 16 13 16 16 16 16 18 15 15 15 16 19 21 23 24 21 30 30 31 36 35 35 34 35 35 33 30 32 33 35 33 33 36 36 36 36 35 33 32 31 29 27 26 26 27 27 27 28 29 28 27 26 24